User: anonymous   Login
Location: Brno
(49.2000°N, 16.6330°E)
Time: 05:22:00
(UTC+02:00)
Language:

Cosmos 332 Rocket - Orbit

View from above orbital plane
View from above orbital plane
View from above satellite
View from above satellite

Ground track
Ground track

The orbit data is extracted from the following two-line orbital elements,

1 04370U 70028B   15184.06982006  .00000127  00000-0  32958-4 0  9992
2 04370 074.0394 012.9060 0014847 114.8865 245.3846 14.59578437907638
Epoch (UTC): 03 July 2015 01:40:32
Eccentricity: 0.0014847
inclination: 74.0394°
perigee height: 684 km
apogee height: 705 km
right ascension of ascending node: 12.9060°
argument of perigee: 114.8865°
revolutions per day: 14.59578437
mean anomaly at epoch: 245.3846°
orbit number at epoch: 90763

The dashed part of the orbit path shows where the satellite is in the earth's shadow,  

DLR